Погода в Пектубаеве

Россия / Республика Марий Эл     57°01′39″N   48°23′06″E
темп.,
°C
ветер,
м/с
пор.,
м/с
влажн.,
%
обл.,
%
осадки,
мм/ч
давл.,
гПа
погр.,
м
26 февраля, пт
пт2600:00−20юв499688 0.0 1018243
03:00−21юв499693 0.1 1019211
06:00−22юв499764 0.0 1017185
09:00−20юв599566 0.0 1017294
12:00−16юв6109298 0.0 1015433
15:00−15юв7129299 0.0 1012518
18:00−14юв91691100 0.1 1007572
21:00−13юв81594100 3.3 1002610
27 февраля, сб
сб2700:00−12юв71394100 4.5 999559
03:00−12вюв61194100 5.6 998409
06:00−12в61095100 1.1 997354
09:00−12всв61095100 2.1 998396
12:00−11всв6994100 1.2 999525
15:00−11св6993100 1.8 1001590
18:00−12ссв6119398 0.3 1003443
21:00−14ссв5109498 0.4 1005328
28 февраля, вс
вс2800:00−18ссв599691 0.0 1006190
03:00−20с499857 0.1 1009152
06:00−22ссв499715 0.0 1010144
09:00−20ссв47957 0.0 1011238
12:00−17с469319 0.0 1012309
15:00−16с589249 0.0 1014435
18:00−20с479899 0.0 1016107
21:00−21с349872 0.0 101843
1 марта, пн
пн100:00−22с33980 0.0 101924
03:00−23с33980 0.0 102120
06:00−23с23990 0.0 102220
09:00−19ссз11950 0.0 102379
12:00−14з228839 0.0 1023246
15:00−12зюз359133 0.0 1022321
18:00−15юз449722 0.0 102159
21:00−16юз599847 0.0 1021162
2 марта, вт
вт200:00−16юз5119899 0.0 1018202
03:00−14ююз71197100 0.1 1014261
06:00−10юз71294100 0.6 1011412
09:00−7юз71195100 1.6 1008412
12:00−4юз6996100 0.9 1007403
15:000зюз4798100 1.6 1006394
18:00−3зсз479677 0.1 1006118
21:00−4зсз479882 0.1 1007136